Regional Weather Roundup
Issued by NWS Little Rock, AR

Home | Current Version | Previous Version | Graphics & Text | Print | Product List | Glossary On
Versions: 1 2 3 4 5 6 7 8 9 10 11 12 13 14 15 16 17 18 19 20 21 22 23 24 25 26 27 28 29 30 31 32 33 34 35 36 37 38 39 40 41 42 43 44 45 46 47 48 49 50
000
ASUS44 KLZK 061705
RWRLZK

WEATHER ROUNDUP FOR ARKANSAS
NATIONAL WEATHER SERVICE LITTLE ROCK AR
1200 PM CDT MON JUL 06 2015

NOTE: "FAIR" INDICATES FEW OR NO CLOUDS BELOW 12,000 FEET WITH NO
SIGNIFICANT WEATHER AND/OR OBSTRUCTIONS TO VISIBILITY.

ARZ001-003-010-029-061800-
NORTHWEST ARKANSAS

CITY           SKY/WX    TMP DP  RH WIND       PRES   REMARKS
FAYETTEVILLE   PTSUNNY   80  73  79 S15       30.05F
FORT SMITH     PTSUNNY   84  72  67 SW13      30.02S HX  89
HARRISON       PTSUNNY   81  71  71 S8G17     30.07S HX  85
BENTONVILLE    CLOUDY    81  70  69 S12G18    30.05S
ROGERS         CLOUDY    80  72  76 S12       30.06S
SILOAM SPGS    CLOUDY    79  70  73 S14       30.05R
HIGHFILL       CLOUDY    80  73  79 S12       30.04S
SPRINGDALE     CLOUDY    81  72  74 S14G21    30.07S
$$

ARZ004-005-016-061800-
NORTH CENTRAL ARKANSAS

CITY           SKY/WX    TMP DP  RH WIND       PRES   REMARKS
BATESVILLE     PTSUNNY   84  73  70 SW9       30.07F HX  91
FLIPPIN        MOSUNNY   84  70  61 SW10G17   30.03F HX  88
MTN HOME       MOSUNNY   83  72  69 SW9       30.04F HX  88
$$

ARZ040-041-061800-
WEST CENTRAL ARKANSAS

CITY           SKY/WX    TMP DP  RH WIND       PRES   REMARKS
MENA           PTSUNNY   86  73  66 SW7G16    30.08F HX  93
MOUNT IDA      PTSUNNY   83  73  72 MISG      30.06F HX  89
$$

ARZ009-017-025-026-028-061800-
NORTHEAST ARKANSAS

CITY           SKY/WX    TMP DP  RH WIND       PRES   REMARKS
JONESBORO      CLOUDY    81  73  76 S12       30.09F HX  86
NEWPORT        PTSUNNY   84  74  72 S13       30.09S HX  91
WALNUT RIDGE   PTSUNNY   81  72  74 S13       30.07F
BLYTHEVILLE    CLOUDY    80  74  81 S12       30.09F HX  85
NW BLYTHEVILLE CLOUDY    81  73  78 S9        30.09F HX  85
$$

ARZ022-023-033-042-044-061800-
CENTRAL ARKANSAS

CITY           SKY/WX    TMP DP  RH WIND       PRES   REMARKS
LITTLE ROCK    MOSUNNY   85  71  63 W13       30.09S HX  90
N LITTLE ROCK  MOSUNNY   83  75  77 W6G16     30.09S HX  90
JACKSONVILLE   MOSUNNY   85  73  67 SW14      30.08F HX  91
SEARCY         CLOUDY    82  75  79 SE8       30.10F HX  89
HOT SPRINGS    PTSUNNY   85  72  65 SW10G22   30.09S HX  91
RUSSELLVILLE   CLOUDY    83  74  74 S7        30.05F HX  89
CLINTON        PTSUNNY   82  75  78 CALM      30.08F HX  89
$$

ARZ036-061800-
EAST ARKANSAS

CITY           SKY/WX    TMP DP  RH WIND       PRES   REMARKS
WEST MEMPHIS   CLOUDY    79  75  87 S9        30.11F
$$

ARZ050-053-066-070-073-061800-
SOUTHWEST ARKANSAS

CITY           SKY/WX    TMP DP  RH WIND       PRES   REMARKS
ARKADELPHIA    FAIR      86  77  74 SW10      30.09S HX  97
CAMDEN         MOSUNNY   86  73  66 MISG      30.09F HX  93
TEXARKANA      PTSUNNY   85  74  69 S13       30.07F HX  92
EL DORADO      PTSUNNY   84  73  69 SW8G18    30.11S HX  90
DE QUEEN       PTSUNNY   85  75  72 S12       30.04F HX  93
$$

ARZ056-057-069-061800-
SOUTHEAST ARKANSAS

CITY           SKY/WX    TMP DP  RH WIND       PRES   REMARKS
PINE BLUFF     MOSUNNY   83  73  72 SW8       30.10F HX  89
STUTTGART      CLOUDY    81  72  74 MISG      30.11S
MONTICELLO     MOSUNNY   83  75  77 W12       30.11S HX  90

$$




USA.gov is the U.S. government's official web portal to all federal, state and local government web resources and services.